Wind_Speed
27 27 27 27 26 25 26 26 27 27 27 27 28 28 28 28 28 28 28 28 28 28 28 28 28 28 29 30 30 30 30 30 30 30 30 29 29 29 29 30 29 29 29
28 28 28 28 27 27 27 27 28 28 28 29 29 30 30 30 30 30 30 30 30 30 30 30 30 31 30 30 31 32 32 31 31 31 31 31 31 31 32 31 32 31 31
29 30 30 29 29 28 28 28 28 29 30 30 31 31 31 32 32 32 32 32 32 32 32 32 33 33 33 32 33 33 33 33 33 33 32 33 33 33 34 34 33 33 33
30 30 30 30 29 29 29 29 29 30 30 31 32 32 33 33 34 34 34 35 35 35 34 34 35 35 35 35 35 35 35 35 34 34 33 34 35 35 36 36 36 35 35
31 31 31 30 31 30 30 30 30 30 31 32 32 34 34 35 35 36 36 36 37 37 37 37 37 37 37 37 37 37 37 37 37 37 37 37 37 38 38 38 38 38 38
32 32 32 32 32 32 32 32 31 32 32 33 34 34 36 37 37 38 37 38 38 39 39 39 39 39 40 40 40 40 40 39 40 40 40 39 40 40 41 41 40 41 41
33 32 32 33 33 33 33 34 34 34 34 35 36 36 37 37 38 38 39 40 40 40 41 42 41 42 42 42 42 42 42 42 43 43 43 43 43 43 43 42 43 42 43
33 33 33 33 34 34 35 35 36 36 36 36 37 37 37 38 39 39 40 40 41 41 42 43 43 43 43 44 44 44 45 46 46 46 46 46 46 45 45 44 44 45 45
34 34 35 35 36 36 36 36 37 38 38 38 39 39 39 39 39 40 41 42 43 42 43 43 45 45 45 45 45 46 46 46 47 48 48 48 48 48 48 47 47 47 47
36 35 35 36 36 36 37 37 38 38 39 40 40 40 41 41 41 42 43 43 44 44 44 45 46 46 46 45 46 46 47 47 48 49 49 49 49 50 50 49 49 49 49
37 37 37 37 37 37 38 38 39 40 40 40 41 42 42 43 43 43 44 45 45 45 45 46 46 46 47 46 46 46 47 48 49 49 50 50 50 50 51 51 50 51 51
38 39 39 38 38 38 39 40 40 41 41 41 42 43 43 44 44 45 46 46 46 46 45 46 46 46 47 47 48 48 48 48 49 50 50 51 51 51 51 51 52 52 53
39 40 40 40 40 40 41 41 42 42 42 42 43 43 44 44 45 46 46 47 47 47 47 47 48 48 48 49 49 50 50 50 50 50 51 51 51 52 52 52 53 54 55
40 41 41 41 41 42 42 43 43 43 43 43 44 45 45 46 46 46 47 48 49 49 49 49 49 49 50 50 50 50 50 51 51 51 52 52 52 53 54 53 54 55 56
42 41 41 41 42 43 44 44 44 44 44 45 46 47 47 47 47 48 48 49 49 50 50 49 49 49 50 50 50 51 51 51 52 52 52 53 53 54 55 55 55 56 57
42 42 42 43 43 44 45 45 45 46 47 46 47 47 48 48 48 48 48 49 49 50 50 50 50 50 50 51 51 51 52 52 53 53 53 54 54 55 56 57 57 57 58
44 44 44 44 45 45 46 47 47 48 48 48 48 49 50 50 49 49 49 49 49 49 50 51 51 51 51 52 52 52 52 53 53 54 54 55 55 56 57 58 57 57 58
45 45 45 46 46 46 47 47 48 48 48 49 49 49 49 49 49 49 49 48 48 49 50 51 52 51 52 52 53 52 52 53 53 54 54 55 55 56 56 57 57 57 58
44 45 45 46 46 47 47 47 47 48 49 49 48 48 47 47 47 47 47 47 47 48 49 49 50 51 51 51 52 52 52 52 53 54 54 55 55 56 57 56 56 57 57
43 44 45 45 46 46 47 47 47 48 48 47 47 47 46 46 46 46 46 46 46 46 47 48 49 50 49 50 50 51 52 52 53 54 54 55 55 55 56 56 56 56 57
44 44 44 45 46 46 45 45 46 46 46 46 46 46 46 46 45 45 45 45 45 46 47 48 49 49 49 50 50 50 51 52 53 54 54 55 55 55 55 55 55 56 56
43 43 43 44 44 44 45 45 45 45 45 45 45 46 46 46 45 45 46 46 45 45 46 47 48 49 49 50 50 51 52 52 53 54 54 54 54 54 54 54 54 54 54
44 44 44 45 44 45 45 45 45 45 45 45 46 46 46 45 46 46 46 46 46 46 46 46 47 48 49 50 50 51 52 52 52 53 53 52 53 52 53 53 53 52 53
44 45 45 45 45 45 46 46 46 46 46 46 45 45 45 45 46 47 47 48 48 47 47 47 47 48 50 50 51 51 52 52 52 53 53 53 53 53 54 54 53 53 53
44 44 45 45 46 46 46 46 46 46 46 46 45 45 46 46 47 47 48 48 49 49 48 48 48 48 50 51 52 52 52 52 52 52 53 53 53 53 53 53 54 53 53
44 44 45 46 46 46 46 47 47 47 47 47 47 47 47 47 48 48 49 49 49 50 50 50 50 49 50 51 52 52 52 52 52 52 52 52 52 52 52 52 53 53 53
Wind_Direction
260 260 259 259 259 258 258 257 255 254 254 255 256 257 258 257 257 257 258 259 259 258 258 258 258 260 258 257 257 257 257 256 256 256 257 257 257 257 258 258 259 259 259
260 259 258 258 259 259 258 258 257 256 255 256 257 258 258 258 257 258 259 260 261 260 259 259 260 260 261 261 260 260 259 258 258 257 256 257 258 258 258 259 259 260 259
260 259 259 260 260 260 260 259 259 259 258 258 258 259 259 259 259 259 259 260 261 261 259 259 260 260 261 261 261 261 261 260 259 258 257 258 258 259 258 259 259 259 259
259 259 259 260 261 261 261 261 261 261 261 260 260 260 261 261 260 260 261 261 261 262 261 261 260 261 261 261 260 261 261 261 260 260 259 260 260 260 260 259 260 260 260
259 259 260 260 261 261 261 261 261 262 262 262 262 262 261 261 261 262 262 262 261 261 262 261 261 261 261 261 261 260 261 261 261 261 260 261 262 262 262 262 260 260 260
259 260 261 261 261 261 261 262 262 262 262 263 264 263 263 263 263 262 262 262 262 262 262 262 262 261 261 260 260 260 261 262 261 262 261 262 263 263 263 263 262 260 260
259 260 260 261 262 262 262 262 263 263 264 265 265 265 265 266 265 264 263 263 263 263 263 262 262 262 261 261 260 260 261 262 262 261 261 262 263 263 264 264 263 261 260
260 261 261 262 263 263 263 264 264 264 266 266 267 267 267 268 267 265 264 264 264 265 264 264 264 264 263 263 262 261 261 262 262 262 262 262 263 262 262 263 263 261 260
260 261 262 263 264 264 265 265 266 266 266 267 268 268 269 269 268 267 267 266 266 266 266 266 266 265 264 264 263 262 262 262 262 262 262 262 263 263 262 262 261 261 260
261 262 264 264 265 266 267 267 267 268 267 268 269 269 270 270 269 268 268 268 267 267 267 267 267 266 264 264 263 262 262 262 263 263 262 263 264 264 263 262 262 260 260
262 264 265 266 267 268 268 268 269 269 268 268 269 270 270 271 270 269 270 270 268 268 268 268 266 264 263 263 263 263 263 264 264 264 264 264 264 264 264 263 263 262 260
263 264 266 267 269 269 268 268 269 270 269 269 270 270 271 271 271 270 270 270 270 268 267 267 265 264 263 263 264 264 264 265 265 265 265 264 264 264 264 264 263 263 262
262 264 266 267 268 268 269 269 269 270 270 271 271 271 271 271 271 271 271 271 269 268 266 266 265 265 263 264 265 265 265 265 265 265 265 264 264 264 264 264 264 263 263
263 264 265 266 267 268 269 270 270 271 271 272 272 271 272 272 272 271 272 271 269 267 266 267 266 265 263 263 264 265 265 265 265 265 266 266 265 265 265 265 264 263 263
263 264 265 267 268 268 269 270 271 271 272 272 272 272 272 272 272 272 272 272 270 268 266 266 267 266 265 264 264 264 265 265 265 266 266 266 266 266 265 264 264 263 263
264 264 265 267 268 269 270 271 272 272 272 273 273 273 272 272 272 273 273 273 271 269 267 266 267 267 266 265 265 265 266 266 266 266 266 267 267 267 266 265 265 265 265
264 265 267 268 269 270 271 272 272 273 273 273 273 273 273 272 272 273 272 273 272 269 268 267 268 267 267 267 266 266 267 266 266 267 267 267 267 267 268 267 266 266 265
265 266 267 268 269 271 272 272 273 273 273 273 273 274 274 273 273 273 273 273 272 270 268 267 267 267 267 267 267 267 267 267 267 268 269 268 268 269 269 268 268 267 266
266 266 267 268 269 271 272 273 273 273 273 273 273 274 274 274 273 273 273 273 273 272 270 268 268 268 268 268 268 268 268 268 268 269 269 269 269 270 270 269 269 268 266
267 268 268 269 270 271 272 273 273 273 273 273 273 273 274 274 274 274 273 273 273 272 271 270 269 268 268 268 268 269 269 269 269 269 270 270 269 270 270 270 269 268 267
267 267 268 268 270 271 271 271 272 273 273 272 272 272 273 273 274 274 273 273 273 273 272 271 270 269 268 268 268 269 269 270 270 270 270 270 269 269 268 268 268 267 267
267 267 268 269 269 270 271 272 272 272 272 272 272 272 273 273 273 274 274 274 275 275 274 272 270 270 269 269 269 270 270 271 270 270 271 271 269 268 269 269 268 267 266
268 268 269 270 270 270 271 271 272 273 272 271 272 272 272 272 273 274 275 275 276 276 275 273 272 271 270 270 271 272 272 272 272 271 271 270 270 268 268 268 268 268 267
268 269 269 269 270 270 271 272 272 273 272 272 272 272 272 272 273 274 275 275 276 276 275 274 273 273 272 272 273 273 272 273 272 272 271 270 270 269 269 268 268 268 268
269 269 269 270 270 271 271 272 272 272 272 272 272 272 273 273 274 274 275 276 276 276 275 276 275 275 275 274 274 273 273 272 272 273 272 271 270 269 269 269 269 269 268
269 270 270 271 271 271 271 271 271 271 271 271 271 272 273 273 274 274 274 275 275 276 276 276 276 276 277 276 275 274 274 273 273 273 272 271 271 269 268 269 269 269 269
Height
5772 5772 5773 5773 5774 5774 5775 5776 5777 5778 5779 5780 5781 5782 5783 5784 5785 5786 5787 5788 5789 5789 5790 5791 5791 5792 5793 5793 5794 5794 5795 5796 5797 5798 5798 5799 5800 5801 5802 5802 5803 5804 5805
5765 5765 5766 5767 5767 5768 5768 5769 5770 5771 5772 5773 5774 5775 5776 5777 5778 5779 5780 5781 5782 5782 5783 5783 5784 5785 5786 5786 5787 5787 5788 5789 5790 5791 5792 5792 5793 5794 5795 5796 5796 5797 5798
5758 5758 5759 5760 5760 5761 5762 5762 5763 5764 5765 5766 5767 5768 5769 5770 5771 5772 5773 5773 5774 5775 5775 5776 5777 5777 5778 5779 5779 5780 5781 5782 5783 5783 5784 5785 5786 5787 5788 5788 5789 5790 5790
5750 5751 5752 5752 5753 5754 5755 5755 5756 5756 5757 5758 5759 5760 5761 5762 5763 5763 5764 5765 5766 5766 5767 5767 5768 5769 5769 5770 5771 5771 5772 5773 5774 5775 5776 5777 5778 5778 5779 5780 5781 5782 5782
5742 5743 5744 5745 5745 5746 5747 5748 5748 5749 5749 5750 5751 5752 5752 5753 5754 5754 5755 5756 5756 5757 5758 5758 5758 5759 5760 5761 5762 5763 5763 5764 5765 5766 5767 5768 5769 5770 5771 5771 5772 5773 5774
5734 5735 5735 5736 5737 5738 5738 5739 5740 5740 5741 5742 5742 5743 5743 5744 5744 5745 5745 5746 5746 5747 5747 5748 5748 5749 5750 5751 5752 5753 5754 5754 5755 5757 5758 5758 5759 5760 5761 5762 5763 5763 5764
5726 5726 5727 5727 5728 5729 5729 5730 5731 5732 5732 5733 5733 5734 5734 5734 5734 5734 5735 5735 5735 5736 5736 5737 5737 5738 5739 5740 5741 5742 5743 5744 5745 5745 5747 5748 5748 5749 5750 5751 5752 5753 5754
5717 5718 5718 5719 5720 5720 5721 5721 5722 5722 5722 5723 5723 5724 5724 5725 5724 5723 5724 5724 5724 5724 5724 5725 5725 5726 5727 5728 5729 5730 5731 5732 5733 5734 5735 5736 5737 5738 5739 5740 5741 5742 5743
5708 5709 5709 5710 5711 5711 5711 5712 5712 5713 5713 5713 5713 5713 5714 5714 5714 5713 5713 5712 5712 5712 5712 5713 5713 5714 5715 5716 5716 5717 5719 5719 5720 5721 5723 5724 5724 5725 5726 5728 5729 5730 5731
5699 5700 5700 5701 5701 5701 5702 5702 5702 5702 5703 5703 5702 5702 5702 5702 5702 5702 5702 5701 5701 5701 5701 5701 5701 5701 5702 5703 5704 5705 5706 5707 5708 5709 5710 5711 5712 5712 5713 5714 5716 5717 5718
5690 5690 5691 5691 5691 5691 5691 5691 5692 5692 5692 5692 5692 5691 5691 5690 5690 5690 5691 5690 5689 5689 5689 5689 5688 5689 5689 5690 5691 5692 5693 5693 5695 5696 5696 5697 5698 5699 5700 5701 5702 5703 5704
5680 5680 5681 5681 5681 5681 5681 5681 5681 5681 5681 5681 5680 5680 5679 5679 5678 5678 5678 5678 5677 5676 5676 5676 5676 5676 5677 5678 5679 5679 5680 5680 5681 5682 5683 5684 5684 5685 5686 5687 5688 5689 5690
5670 5670 5670 5671 5671 5671 5670 5670 5670 5670 5670 5669 5669 5668 5667 5667 5666 5666 5665 5665 5664 5664 5663 5663 5663 5664 5664 5665 5666 5667 5667 5667 5668 5668 5669 5669 5670 5671 5671 5672 5673 5674 5675
5659 5659 5659 5660 5660 5660 5660 5659 5659 5659 5658 5658 5657 5656 5655 5654 5654 5653 5653 5652 5651 5651 5651 5650 5651 5651 5651 5652 5652 5653 5653 5654 5654 5655 5655 5655 5656 5656 5656 5657 5658 5658 5659
5648 5648 5648 5648 5648 5648 5648 5648 5648 5647 5646 5645 5644 5643 5643 5642 5641 5640 5639 5638 5638 5637 5638 5637 5637 5637 5637 5638 5638 5639 5639 5640 5640 5640 5641 5641 5641 5641 5641 5641 5642 5643 5644
5637 5637 5637 5637 5637 5637 5636 5636 5635 5634 5634 5633 5631 5630 5629 5628 5627 5626 5625 5624 5623 5623 5624 5624 5623 5623 5623 5623 5624 5624 5625 5625 5625 5626 5626 5626 5625 5625 5626 5626 5626 5626 5627
5626 5626 5626 5625 5625 5624 5624 5623 5622 5622 5621 5620 5618 5617 5616 5615 5614 5613 5612 5610 5609 5609 5609 5610 5609 5609 5609 5609 5609 5609 5610 5610 5610 5610 5610 5610 5610 5610 5610 5610 5610 5610 5610
5614 5614 5614 5613 5613 5612 5611 5610 5609 5608 5607 5606 5605 5603 5602 5601 5600 5599 5598 5597 5596 5595 5595 5596 5595 5595 5595 5594 5595 5595 5595 5595 5595 5594 5594 5594 5594 5594 5593 5593 5593 5593 5593
5602 5602 5601 5600 5600 5599 5598 5597 5596 5595 5594 5593 5591 5590 5589 5588 5587 5586 5585 5584 5583 5582 5581 5582 5582 5581 5581 5580 5580 5580 5579 5579 5579 5579 5579 5579 5578 5577 5577 5577 5576 5576 5576
5590 5589 5589 5588 5587 5586 5585 5584 5583 5582 5580 5579 5578 5577 5576 5575 5574 5573 5572 5571 5570 5569 5568 5568 5568 5567 5567 5566 5566 5566 5565 5564 5563 5563 5563 5562 5562 5561 5560 5560 5560 5560 5559
5578 5577 5576 5575 5574 5573 5572 5571 5570 5569 5567 5566 5565 5564 5564 5562 5561 5560 5559 5559 5557 5556 5555 5555 5554 5554 5553 5552 5552 5551 5551 5549 5548 5547 5547 5546 5546 5545 5544 5544 5543 5543 5543
5565 5564 5563 5562 5561 5560 5559 5558 5557 5556 5554 5553 5552 5552 5551 5550 5549 5548 5547 5546 5544 5543 5542 5542 5541 5540 5539 5538 5537 5536 5535 5535 5534 5533 5531 5530 5529 5529 5528 5528 5527 5527 5527
5552 5551 5551 5550 5549 5547 5546 5545 5544 5542 5542 5541 5540 5539 5538 5537 5536 5535 5534 5532 5531 5530 5529 5528 5528 5526 5525 5525 5524 5523 5521 5519 5517 5516 5516 5515 5513 5513 5512 5511 5511 5511 5511
5539 5538 5537 5536 5535 5534 5533 5531 5530 5529 5528 5528 5527 5526 5525 5524 5523 5522 5521 5520 5518 5516 5516 5515 5514 5513 5511 5510 5509 5508 5506 5505 5503 5500 5500 5500 5498 5497 5496 5495 5495 5495 5495
5526 5525 5524 5523 5522 5520 5519 5518 5517 5516 5515 5515 5514 5513 5512 5511 5510 5509 5508 5507 5505 5503 5501 5500 5499 5498 5497 5495 5494 5493 5491 5490 5489 5485 5484 5484 5483 5483 5482 5480 5479 5479 5478
5513 5512 5511 5509 5508 5506 5505 5504 5503 5502 5502 5501 5500 5500 5499 5498 5496 5495 5494 5493 5492 5490 5488 5487 5485 5484 5482 5480 5478 5477 5476 5475 5474 5472 5469 5469 5468 5467 5468 5466 5464 5463 5463